This demonstration page uses our WeatherBlox Daily Observations layout. Learn more.

Left ArrowRight Arrow

38.83388, -104.82136

Hourly Observations for March 28, 2021

Temp ( °F °C ) Dew Point ( °F °C ) Humidity (%) Winds ( mph kmh ) Pressure ( in mb ) Visibility ( mi km ) Precip ( " mm )
12:58 am 00:58 Clear 34 1.1 16 -9.1 47 47 Calm 30.01 1016 10 16 0.00 0.00
1:58 am 01:58 Clear 33 0.5 16 -9 49 49 WNW 6 9 29.98 1015 10 16 0.00 0.00
2:58 am 02:58 Clear 34 1.1 15 -9.4 46 46 WNW 5 7 29.97 1015 10 16 0.00 0.00
3:58 am 03:58 Clear 34 1.2 16 -8.7 48 48 S 5 7 29.94 1014 10 16 0.00 0.00
4:58 am 04:58 Clear 33 0.8 14 -9.9 45 45 Calm 29.95 1014 10 16 0.00 0.00
5:58 am 05:58 Clear 33 0.6 13 -10.7 43 43 Calm 29.93 1014 10 16 0.00 0.00
6:58 am 06:58 Sunny 34 0.9 12 -11.1 41 41 WNW 6 9 29.95 1014 10 16 0.00 0.00
7:58 am 07:58 Sunny 38 3.5 16 -9.1 40 40 SE 5 7 29.95 1014 10 16 0.00 0.00
8:58 am 08:58 Sunny 43 6 16 -8.9 34 34 ESE 8 13 29.92 1013 10 16 0.00 0.00
9:58 am 09:58 Sunny 46 7.7 19 -7.4 34 34 ESE 7 11 29.91 1013 10 16 0.00 0.00
10:58 am 10:58 Sunny 50 10 15 -9.3 25 25 ESE 9 15 29.88 1012 10 16 0.00 0.00
11:58 am 11:58 Sunny 52 11.2 16 -8.9 24 24 SE 9 15 29.86 1011 10 16 0.00 0.00
12:58 pm 12:58 Mostly Cloudy 53 11.7 17 -8.4 24 24 E 7 11 29.85 1011 10 16 0.00 0.00
1:58 pm 13:58 Cloudy 53 11.8 12 -11 19 19 Calm 29.85 1011 10 16 0.00 0.00
2:58 pm 14:58 Sunny 56 13.6 15 -9.4 19 19 E 5 7 29.79 1009 10 16 0.00 0.00
3:58 pm 15:58 Partly Cloudy 59 14.8 16 -8.7 19 19 SE 7 11 29.76 1008 10 16 0.00 0.00
4:58 pm 16:58 Sunny 56 13.5 18 -7.8 22 22 SW 6 9 29.78 1008 10 16 0.00 0.00
5:58 pm 17:58 Sunny 55 12.6 18 -8 23 23 SW 3 6 29.77 1008 10 16 0.00 0.00
6:58 pm 18:58 Sunny 52 11.2 17 -8.5 24 24 WSW 5 7 29.76 1008 10 16 0.00 0.00
7:58 pm 19:58 Clear 51 10.3 18 -7.9 27 27 WNW 10 17 29.72 1007 10 16 0.00 0.00
8:58 pm 20:58 Clear 50 9.8 18 -7.9 28 28 W 7 11 29.70 1006 10 16 0.00 0.00
9:58 pm 21:58 Clear 49 9.2 17 -8.2 29 29 WNW 6 9 29.70 1006 10 16 0.00 0.00
10:58 pm 22:58 Clear 47 8.6 17 -8.3 30 30 W 5 7 29.64 1004 10 16 0.00 0.00
11:58 pm 23:58 Clear 48 8.7 13 -10.6 25 25 WSW 5 7 29.60 1002 10 16 0.00 0.00

Powered by AerisWeather